Plymouth, MA

8:05 AM EDT on April 30, 2017 (GMT -0400)
Plymouth Municipal

Weather History for KPYM - January, 2013

Change the Weather History Date:

Wednesday, January 16, 2013

  Actual Average Record
Temperature  
Mean Temperature 36 °F -  
Max Temperature 39 °F 35 °F 61 °F (1953)
Min Temperature 33 °F 15 °F -8 °F (2004)
Degree Days  
Heating Degree Days 29    
Moisture  
Dew Point 32 °F    
Average Humidity 89    
Maximum Humidity 96    
Minimum Humidity 65    
Precipitation  
Precipitation 0.47 in - - ()
Sea Level Pressure  
Sea Level Pressure 29.98 in    
Wind  
Wind Speed 4 mph (North)    
Max Wind Speed 8 mph    
Max Gust Speed -    
Visibility 4 miles    
Events Fog , Rain , Snow    
Averages and records for this station are not official NWS values.
T = Trace of Precipitation, MM = Missing Value Source: NWS Daily Summary

Daily Weather History Graph

Daily Weather History Graph

Search for Another Location

Airport or City:

Trip Planner

Search our weather history database for the weather conditions in past years. The results will help you decide how hot, cold, wet, or windy it might be!

Date:

Astronomy

Jan. 16, 2013 Rise Set
Actual Time 7:07 AM EST 4:38 PM EST
Civil Twilight 6:36 AM EST 5:09 PM EST
Nautical Twilight 6:02 AM EST 5:43 PM EST
Astronomical Twilight 5:29 AM EST 6:16 PM EST
Moon 9:36 AM EST (1/16) 10:33 PM EST (1/16)
Length of Visible Light 10h 32m
Length of Day
9h 30m
Waxing Crescent, 28% of the Moon is Illuminated
Jan 16
Waxing Crescent
Jan 18
First Quarter
Jan 26
Full
Feb 3
Last Quarter
Feb 10
New

Hourly Weather History & Observations

Time (EST) Temp. Windchill Dew Point Humidity Pressure Visibility Wind Dir Wind Speed Gust Speed Precip Events Conditions
12:52 AM 37.9 °F 34.4 °F 28.0 °F 68% 30.22 in 10.0 mi NNE 4.6 mph - N/A   Overcast
1:52 AM 37.9 °F 35.5 °F 28.9 °F 70% 30.22 in 10.0 mi NNE 3.5 mph - N/A   Overcast
2:08 AM 37.4 °F - 28.4 °F 70% 30.21 in 10.0 mi Calm Calm - N/A   Overcast
2:21 AM 39.2 °F 37.0 °F 28.4 °F 65% 30.20 in 10.0 mi ENE 3.5 mph - N/A   Overcast
2:52 AM 39.0 °F 35.7 °F 30.0 °F 70% 30.20 in 10.0 mi NNE 4.6 mph - 0.00 in Rain Light Rain
3:52 AM 37.0 °F 32.4 °F 33.1 °F 86% 30.16 in 8.0 mi NNE 5.8 mph - 0.03 in Rain Light Rain
4:19 AM 37.4 °F 32.1 °F 33.8 °F 87% 30.13 in 7.0 mi NE 6.9 mph - 0.02 in Rain Light Rain
4:52 AM 36.0 °F 32.1 °F 32.0 °F 86% 30.15 in 5.0 mi NNE 4.6 mph - 0.05 in Rain Light Rain
5:15 AM 33.8 °F 29.6 °F 30.2 °F 87% 30.13 in 4.0 mi North 4.6 mph - 0.03 in Snow Light Snow
5:33 AM 33.8 °F - 30.2 °F 87% 30.14 in 2.0 mi Calm Calm - 0.05 in Snow Light Snow
5:44 AM 33.8 °F - 30.2 °F 87% 30.14 in 1.5 mi Calm Calm - 0.06 in Snow Light Snow
5:52 AM 33.1 °F - 30.9 °F 92% 30.14 in 1.2 mi Calm Calm - 0.07 in Snow Light Snow
6:13 AM 33.8 °F 30.8 °F 30.2 °F 87% 30.10 in 2.0 mi NE 3.5 mph - 0.02 in Snow Light Snow
6:42 AM 33.8 °F 30.8 °F 30.2 °F 87% 30.09 in 2.0 mi NE 3.5 mph - 0.07 in Snow Light Snow
6:52 AM 33.1 °F 30.0 °F 30.9 °F 92% 30.09 in 2.0 mi NE 3.5 mph - 0.09 in Snow Light Snow
7:22 AM 33.8 °F 30.8 °F 30.2 °F 87% 30.09 in 3.0 mi North 3.5 mph - 0.05 in Snow Light Snow
7:30 AM 33.8 °F 30.8 °F 30.2 °F 87% 30.09 in 1.8 mi North 3.5 mph - 0.07 in Snow Light Snow
7:52 AM 33.1 °F - 30.9 °F 92% 30.09 in 1.0 mi Calm Calm - 0.12 in Snow Light Snow
8:02 AM 33.8 °F 30.8 °F 30.2 °F 87% 30.09 in 3.0 mi NNE 3.5 mph - 0.01 in Rain Light Rain
8:48 AM 33.8 °F 29.6 °F 30.2 °F 87% 30.08 in 2.5 mi NNE 4.6 mph - 0.04 in Snow Light Snow
8:52 AM 33.1 °F 28.7 °F 30.9 °F 92% 30.09 in 2.5 mi NNE 4.6 mph - 0.04 in Snow Light Snow
8:59 AM 33.8 °F - 30.2 °F 87% 30.07 in 3.0 mi Calm Calm - 0.00 in Rain Light Rain
9:34 AM 33.8 °F 28.6 °F 30.2 °F 87% 30.02 in 6.0 mi NE 5.8 mph - 0.01 in   Overcast
9:49 AM 33.8 °F 28.6 °F 30.2 °F 87% 30.01 in 3.0 mi NE 5.8 mph - 0.01 in   Overcast
9:52 AM 33.1 °F 27.7 °F 30.9 °F 92% 30.01 in 3.0 mi NE 5.8 mph - 0.01 in   Overcast
10:23 AM 33.8 °F 28.6 °F 32.0 °F 93% 29.96 in 2.5 mi NE 5.8 mph - N/A   Overcast
10:52 AM 35.1 °F 32.2 °F 33.1 °F 92% 29.94 in 2.0 mi ENE 3.5 mph - 0.00 in Rain Light Rain
11:25 AM 35.6 °F - 33.8 °F 93% 29.90 in 2.0 mi Calm Calm - 0.01 in   Overcast
11:52 AM 36.0 °F 33.3 °F 33.1 °F 89% 29.91 in 3.0 mi NNW 3.5 mph - 0.01 in   Overcast
12:09 PM 35.6 °F - 33.8 °F 93% 29.90 in 2.0 mi Calm Calm - N/A   Overcast
12:17 PM 35.6 °F - 33.8 °F 93% 29.90 in 1.2 mi Calm Calm - 0.01 in   Overcast
12:41 PM 35.6 °F 32.8 °F 33.8 °F 93% 29.90 in 1.8 mi NW 3.5 mph - 0.02 in   Overcast
12:52 PM 35.1 °F 32.2 °F 33.1 °F 92% 29.90 in 1.8 mi NW 3.5 mph - 0.02 in   Overcast
12:59 PM 35.6 °F - 33.8 °F 93% 29.89 in 2.0 mi Calm Calm - 0.00 in   Overcast
1:16 PM 35.6 °F - 33.8 °F 93% 29.88 in 1.5 mi Calm Calm - 0.01 in Rain Light Rain
1:24 PM 35.6 °F - 33.8 °F 93% 29.88 in 2.0 mi Calm Calm - 0.02 in Rain Light Rain
1:31 PM 35.6 °F 32.8 °F 33.8 °F 93% 29.88 in 2.5 mi WNW 3.5 mph - 0.02 in Rain Light Rain
1:42 PM 35.6 °F - 33.8 °F 93% 29.88 in 3.0 mi Calm Calm - 0.03 in Rain Light Rain
1:52 PM 35.1 °F - 33.1 °F 92% 29.87 in 4.0 mi Calm Calm - 0.03 in Rain Light Rain
2:45 PM 35.6 °F - 33.8 °F 93% 29.78 in 0.5 mi Calm Calm - 0.00 in Fog Fog
2:52 PM 35.1 °F 28.6 °F 32.0 °F 89% 29.80 in 0.8 mi NW 8.1 mph - 0.00 in   Overcast
3:00 PM 35.6 °F 29.2 °F 32.0 °F 87% 29.79 in 2.0 mi NW 8.1 mph - N/A   Overcast
3:32 PM 35.6 °F 29.9 °F 33.8 °F 93% 29.81 in 1.5 mi NNW 6.9 mph - N/A   Overcast
3:52 PM 35.1 °F 28.6 °F 33.1 °F 92% 29.83 in 0.8 mi NW 8.1 mph - N/A   Overcast
4:36 PM 35.6 °F 31.7 °F 33.8 °F 93% 29.83 in 1.2 mi NW 4.6 mph - N/A   Overcast
4:52 PM 35.1 °F 30.1 °F 33.1 °F 92% 29.85 in 1.8 mi WNW 5.8 mph - N/A   Overcast
5:39 PM 35.6 °F 32.8 °F 33.8 °F 93% 29.83 in 2.0 mi West 3.5 mph - N/A   Overcast
5:52 PM 35.1 °F 30.1 °F 33.1 °F 92% 29.84 in 2.0 mi WNW 5.8 mph - N/A   Overcast
6:25 PM 33.8 °F 27.7 °F 32.0 °F 93% 29.85 in 3.0 mi WNW 6.9 mph - N/A   Overcast
6:52 PM 34.0 °F 28.8 °F 33.1 °F 96% 29.85 in 4.0 mi West 5.8 mph - N/A   Overcast
7:52 PM 34.0 °F 29.8 °F 32.0 °F 92% 29.83 in 5.0 mi West 4.6 mph - N/A   Overcast
8:52 PM 34.0 °F 28.8 °F 32.0 °F 92% 29.86 in 7.0 mi West 5.8 mph - N/A   Overcast
9:52 PM 34.0 °F 28.8 °F 30.9 °F 89% 29.86 in 5.0 mi WSW 5.8 mph - N/A   Overcast
10:15 PM 33.8 °F 27.0 °F 32.0 °F 93% 29.85 in 8.0 mi WSW 8.1 mph - N/A   Overcast
10:52 PM 35.1 °F 28.6 °F 32.0 °F 89% 29.86 in 9.0 mi SW 8.1 mph - N/A   Overcast
11:52 PM 35.1 °F 28.6 °F 32.0 °F 89% 29.87 in 8.0 mi SW 8.1 mph - N/A   Overcast